Change the Weather History Date:

Sunday, August 25, 2013

  Actual Average Record
Temperature  
Mean Temperature 72 °F -  
Max Temperature 90 °F 77 °F 93 °F (1948)
Min Temperature 53 °F 51 °F 33 °F (1977)
Cooling Degree Days 6    
Growing Degree Days 22 (Base 50)    
Moisture  
Dew Point 61 °F    
Average Humidity 62    
Maximum Humidity 96    
Minimum Humidity 45    
Precipitation  
Precipitation 0.03 in - - ()
Sea Level Pressure  
Sea Level Pressure 30.06 in    
Wind  
Wind Speed 8 mph (SW)    
Max Wind Speed 23 mph    
Max Gust Speed 33 mph    
Visibility 10 miles    
Events Rain , Thunderstorm    
Averages and records for this station are not official NWS values.
T = Trace of Precipitation, MM = Missing Value Source: NWS Daily Summary

Daily Weather History Graph

Daily Weather History Graph

Search for Another Location

Airport or City:

Trip Planner

Search our weather history database for the weather conditions in past years. The results will help you decide how hot, cold, wet, or windy it might be!

Date:

Astronomy

Aug. 25, 2013 Rise Set
Actual Time 6:52 AM EDT 8:29 PM EDT
Civil Twilight 6:20 AM EDT 9:00 PM EDT
Nautical Twilight 5:42 AM EDT 9:38 PM EDT
Astronomical Twilight 5:01 AM EDT 10:19 PM EDT
Moon 10:40 PM EDT (8/25) 12:11 PM EDT (8/25)
Length of Visible Light 14h 39m
Length of Day
13h 37m
Waning Gibbous, 76% of the Moon is Illuminated
Aug 25
Waning Gibbous
Aug 28
Last Quarter
Sep 5
New
Sep 12
First Quarter
Sep 19
Full

Hourly Weather History & Observations

Time (EDT) Temp. Heat Index Dew Point Humidity Pressure Visibility Wind Dir Wind Speed Gust Speed Precip Events Conditions
12:54 AM 57.0 °F - 54.0 °F 89% 30.20 in 10.0 mi Calm Calm - N/A   Clear
1:54 AM 53.1 °F - 52.0 °F 96% 30.19 in 4.0 mi Calm Calm - N/A   Clear
2:54 AM 55.9 °F - 53.1 °F 90% 30.18 in 10.0 mi SSE 4.6 mph - N/A   Clear
3:54 AM 57.9 °F - 54.0 °F 87% 30.17 in 10.0 mi SE 4.6 mph - N/A   Clear
4:54 AM 63.0 °F - 55.0 °F 75% 30.17 in 10.0 mi SE 3.5 mph - N/A   Clear
5:54 AM 71.1 °F - 54.0 °F 55% 30.15 in 10.0 mi SSW 9.2 mph 17.3 mph N/A   Mostly Cloudy
6:54 AM 72.0 °F - 53.1 °F 51% 30.14 in 10.0 mi SSW 6.9 mph 16.1 mph N/A   Partly Cloudy
7:54 AM 72.0 °F - 54.0 °F 53% 30.14 in 10.0 mi SSW 9.2 mph - N/A   Clear
8:54 AM 73.0 °F - 54.0 °F 51% 30.13 in 10.0 mi SSW 13.8 mph 23.0 mph N/A   Clear
9:54 AM 75.9 °F - 55.9 °F 50% 30.09 in 10.0 mi SSW 16.1 mph 27.6 mph N/A   Clear
10:54 AM 78.1 °F - 59.0 °F 52% 30.08 in 10.0 mi SW 15.0 mph 26.5 mph N/A   Clear
11:54 AM 82.0 °F 83.0 °F 62.1 °F 51% 30.06 in 10.0 mi SW 20.7 mph 33.4 mph N/A   Clear
12:54 PM 84.9 °F 86.1 °F 64.0 °F 49% 30.04 in 10.0 mi WSW 13.8 mph 26.5 mph N/A   Clear
1:54 PM 87.1 °F 88.9 °F 64.9 °F 48% 30.03 in 10.0 mi SW 17.3 mph 28.8 mph N/A   Partly Cloudy
2:54 PM 90.0 °F 92.4 °F 66.0 °F 45% 30.00 in 10.0 mi SW 23.0 mph 31.1 mph N/A   Scattered Clouds
3:54 PM 90.0 °F 92.4 °F 66.0 °F 45% 29.99 in 10.0 mi SW 17.3 mph 29.9 mph N/A   Mostly Cloudy
4:54 PM 87.1 °F 89.2 °F 66.0 °F 49% 29.97 in 10.0 mi WSW 13.8 mph 26.5 mph N/A   Mostly Cloudy
5:29 PM 86.0 °F 88.2 °F 66.2 °F 51% 30.00 in 10.0 mi West 13.8 mph 28.8 mph N/A Thunderstorm Scattered Clouds
5:54 PM 78.1 °F - 69.1 °F 74% 30.00 in 10.0 mi West 9.2 mph 17.3 mph 0.03 in Rain , Thunderstorm Light Rain
6:41 PM 78.8 °F - 69.8 °F 74% 30.00 in 10.0 mi WSW 9.2 mph - 0.00 in   Mostly Cloudy
6:54 PM 79.0 °F - 69.1 °F 72% 29.99 in 10.0 mi WSW 5.8 mph - 0.00 in   Scattered Clouds
7:54 PM 79.0 °F - 69.1 °F 72% 29.99 in 10.0 mi WSW 6.9 mph - 0.00 in   Scattered Clouds
8:54 PM 80.1 °F 82.3 °F 66.9 °F 64% 29.99 in 10.0 mi SW 8.1 mph - N/A   Clear
9:54 PM 81.0 °F 82.7 °F 64.9 °F 58% 29.99 in 10.0 mi WSW 12.7 mph 21.9 mph N/A   Clear
10:54 PM 80.1 °F 81.7 °F 64.0 °F 58% 29.99 in 10.0 mi SW 9.2 mph 21.9 mph N/A   Clear
11:54 PM 79.0 °F - 64.9 °F 62% 29.97 in 10.0 mi SW 12.7 mph 23.0 mph N/A   Clear